Norfolk, NE

8:53 PM CST on February 22, 2017 (GMT -0600)
Stefan Memorial

Weather History for KOFK - January, 2013

Change the Weather History Date:

Sunday, January 6, 2013

  Actual Average Record
Temperature  
Mean Temperature 22 °F 22 °F  
Max Temperature 37 °F 33 °F 58 °F (1933)
Min Temperature 7 °F 12 °F -24 °F (1912)
Degree Days  
Heating Degree Days 43 43  
Month to date heating degree days 275 258  
Since 1 July heating degree days 2887 2964  
Cooling Degree Days 0 0  
Month to date cooling degree days 0 0  
Year to date cooling degree days 0 0  
Moisture  
Dew Point 16 °F    
Average Humidity 76    
Maximum Humidity 92    
Minimum Humidity 59    
Precipitation  
Precipitation 0.00 in 0.02 in 0.26 in (1967)
Month to date precipitation T 0.11  
Year to date precipitation T 0.11  
Snow  
Snow 0.00 in 0.20 in - ()
Month to date snowfall T 1.1  
Since 1 July snowfall 7.5 12.0  
Snow Depth 1.00 in    
Sea Level Pressure  
Sea Level Pressure 30.24 in    
Wind  
Wind Speed 8 mph (SW)    
Max Wind Speed 23 mph    
Max Gust Speed 29 mph    
Visibility 10 miles    
Events      
T = Trace of Precipitation, MM = Missing Value Source: NWS Daily Summary

Daily Weather History Graph

Daily Weather History Graph

Search for Another Location

Airport or City:

Trip Planner

Search our weather history database for the weather conditions in past years. The results will help you decide how hot, cold, wet, or windy it might be!

Date:

Astronomy

Jan. 06, 2013 Rise Set
Actual Time 7:57 AM CST 5:14 PM CST
Civil Twilight 7:26 AM CST 5:45 PM CST
Nautical Twilight 6:51 AM CST 6:20 PM CST
Astronomical Twilight 6:17 AM CST 6:54 PM CST
Moon 2:11 AM CST (1/6) 12:44 PM CST (1/6)
Length of Visible Light 10h 19m
Length of Day
9h 16m
Waning Crescent, 33% of the Moon is Illuminated
Jan 6
Waning Crescent
Jan 11
New
Jan 18
First Quarter
Jan 26
Full
Feb 3
Last Quarter

Hourly Weather History & Observations

Time (CST) Temp. Windchill Dew Point Humidity Pressure Visibility Wind Dir Wind Speed Gust Speed Precip Events Conditions
12:56 AM 17.1 °F 4.3 °F 12.0 °F 81% 30.27 in 10.0 mi WNW 11.5 mph - N/A   Clear
1:56 AM 14.0 °F 3.9 °F 10.0 °F 84% 30.27 in 10.0 mi WNW 6.9 mph - N/A   Clear
2:56 AM 12.9 °F 2.6 °F 9.0 °F 84% 30.29 in 10.0 mi West 6.9 mph - N/A   Clear
3:56 AM 12.9 °F 2.6 °F 9.0 °F 84% 30.30 in 10.0 mi WSW 6.9 mph - N/A   Clear
4:56 AM 14.0 °F 1.2 °F 9.0 °F 80% 30.29 in 10.0 mi West 10.4 mph - N/A   Clear
5:56 AM 10.9 °F 4.7 °F 8.1 °F 88% 30.30 in 10.0 mi West 3.5 mph - N/A   Clear
6:56 AM 9.0 °F 2.4 °F 6.1 °F 88% 30.32 in 10.0 mi WNW 3.5 mph - N/A   Clear
7:56 AM 8.1 °F -3.2 °F 3.9 °F 83% 30.32 in 10.0 mi WSW 6.9 mph - N/A   Clear
8:56 AM 14.0 °F - 9.0 °F 80% 30.33 in 10.0 mi Calm Calm - N/A   Clear
9:56 AM 18.0 °F 9.8 °F 12.0 °F 78% 30.32 in 10.0 mi WNW 5.8 mph - N/A   Clear
10:56 AM 26.1 °F 17.6 °F 16.0 °F 66% 30.32 in 10.0 mi West 8.1 mph - N/A   Clear
11:56 AM 30.0 °F 23.2 °F 19.0 °F 64% 30.30 in 10.0 mi West 6.9 mph - N/A   Clear
12:56 PM 32.0 °F - 19.9 °F 61% 30.27 in 10.0 mi Calm Calm - N/A   Clear
1:56 PM 34.0 °F 29.8 °F 23.0 °F 64% 30.24 in 10.0 mi SSW 4.6 mph - N/A   Clear
2:56 PM 36.0 °F 32.1 °F 24.1 °F 62% 30.23 in 10.0 mi South 4.6 mph - N/A   Clear
3:56 PM 36.0 °F 28.0 °F 25.0 °F 64% 30.21 in 10.0 mi South 11.5 mph - N/A   Clear
4:56 PM 32.0 °F 23.0 °F 23.0 °F 69% 30.20 in 10.0 mi South 11.5 mph - N/A   Clear
5:56 PM 30.0 °F 20.5 °F 21.9 °F 72% 30.18 in 10.0 mi South 11.5 mph - N/A   Clear
6:56 PM 28.0 °F 19.3 °F 21.0 °F 75% 30.16 in 10.0 mi South 9.2 mph - N/A   Clear
7:56 PM 28.0 °F 18.1 °F 19.9 °F 72% 30.14 in 10.0 mi South 11.5 mph - N/A   Clear
8:56 PM 28.0 °F 14.9 °F 19.9 °F 72% 30.10 in 10.0 mi South 19.6 mph - N/A   Clear
9:56 PM 28.0 °F 17.0 °F 19.0 °F 69% 30.09 in 10.0 mi South 13.8 mph - N/A   Clear
10:56 PM 28.0 °F 19.3 °F 19.0 °F 69% 30.08 in 10.0 mi South 9.2 mph - N/A   Clear
11:56 PM 30.0 °F 19.1 °F 21.0 °F 69% 30.06 in 10.0 mi SSW 15.0 mph - N/A   Clear